Preview of NWS' New Version of Forecast
This preview is not operational and should not be used for support decisions.

Regional Weather Roundup (RWR)

Issued by National Weather Service (NWS)

                            
000
ASUS45 KBOI 180210
RWRID 

IDAHO REGIONAL WEATHER ROUNDUP
NATIONAL WEATHER SERVICE BOISE ID
800 PM MDT WED APR 17 2019

NOTE: "FAIR" INDICATES FEW OR NO CLOUDS BELOW 12000 FEET
WITH NO SIGNIFICANT WEATHER AND/OR OBSTRUCTIONS TO VISIBILITY

IDZ012-014-180300-
SOUTHWEST IDAHO

  
CITY           SKY/WX    TMP DP  RH WIND       PRES   REMARKS
BOISE          CLEAR     60  39  45 NW12      30.24R                  
CALDWELL       CLEAR     62  40  44 NW6       30.24S                  
MOUNTAIN HOME  CLEAR     60  37  43 NW15      30.23R                  
$$

IDZ016-017-180300-
SOUTHCENTRAL IDAHO

  
CITY           SKY/WX    TMP DP  RH WIND       PRES   REMARKS
BURLEY         CLEAR     53  36  52 W9        30.21R                  
JEROME         CLEAR     54  36  50 W21G29    30.21R                  
TWIN FALLS     CLEAR     52  38  58 W17       30.24R                  
$$

IDZ019>023-180300-
SOUTHEAST IDAHO

  
CITY           SKY/WX    TMP DP  RH WIND       PRES   REMARKS
IDAHO FALLS    PTCLDY    53  35  50 SW13      30.14S                  
POCATELLO      PTCLDY    54  35  48 W20       30.19R                  
REXBURG        CLEAR     55  33  43 CALM      30.13S                  
$$

IDZ006-010-011-018-031-032-180300-
CENTRAL IDAHO MOUNTAINS

  
CITY           SKY/WX    TMP DP  RH WIND       PRES   REMARKS
MCCALL         CLEAR     48  26  42 W3        30.25R                  
HAILEY         CLEAR     54  27  35 NW8       30.17R                  
STANLEY          N/A     44  26  49 N6        30.26R                  
SALMON         CLEAR     52  29  41 N12       30.18R                  
CHALLIS        CLEAR     54  24  31 NW13      30.18R                  
$$

IDZ002-004-006-007-026-180300-
NORTHERN IDAHO

  
CITY           SKY/WX    TMP DP  RH WIND       PRES   REMARKS
LEWISTON       CLEAR     61  40  45 SE5       30.22R                  
LOWELL           N/A     51  49  92 N3        30.26                   
COEUR D'ALENE  CLEAR     55  34  45 SW16      30.18R                  
MULLAN PASS    CLOUDY    36  30  79 SW9       30.20S WCI  29          
$$